Погода в Тургояке

Россия / Челябинская область     55°08′43″N   60°07′21″E
темп.,
°C
ветер,
м/с
пор.,
м/с
влажн.,
%
обл.,
%
осадки,
мм/ч
давл.,
гПа
погр.,
м
30 июня, чт
чт3023:00+6з37965 0.0 1010173
02:00+5зсз23985 0.0 100945
05:00+4зсз239753 0.0 100953
08:00+10з397176 0.0 1008438
11:00+15зсз465183 0.0 10071311
14:00+17зсз4444100 0.0 10072272
17:00+16з234882 0.1 10081460
20:00+13сз0068100 0.1 100811
1 июля, пт
пт123:00+8ссв118567 0.1 101010
02:00+7юв009167 0.0 101110
05:00+9всв1184100 0.0 101213
08:00+12в126988 0.0 1012353
11:00+15в336999 0.3 1012934
14:00+15вюв3377100 2.1 1013922
17:00+15вюв337389 3.0 1013849
20:00+14всв118591 0.6 101330
2 июля, сб
сб223:00+10ссв119588 2.9 101411
02:00+9ссв119414 0.1 101410
05:00+8ссз01948 0.1 101410
08:00+13в01857 0.3 101383
11:00+17в22559 1.2 10131334
14:00+17вюв226190 0.9 10131063
17:00+18ююв225216 1.4 10121436
20:00+15юв118122 0.4 101236
3 июля, вс
вс323:00+10всв00918 0.4 101310
02:00+9юз009059 0.0 101210
05:00+9зюз118880 0.0 101110
08:00+15ю117550 0.1 1010187
11:00+16зюз117488 1.1 1009278
14:00+18юз0164100 0.6 1007561
17:00+17всв3468100 0.9 1007655
20:00+15св1174100 0.3 100611
4 июля, пн
пн423:00+12ссв379082 0.4 1007226
02:00+11ссв3897100 0.1 1007428
05:00+11ссв4898100 0.4 1007804
08:00+9ссв51098100 0.3 1009696
11:00+11св488799 0.4 10101029
14:00+13св476597 0.2 10101474
17:00+13св575799 0.3 10121417
20:00+12св376512 0.0 1012728